contact:dominique.lefevre@mio.osupytheas.fr, maurice.libes@osupytheas.fr, didier.mallarino@osupytheas.fr
Project:EMSO http://www.emso-fr.org/EMSO-France
Depth: 2436.0 m
Title:EMSO Ligure Ouest : Data MII capteur AQUADOPP
Date,Latitude,Longitude,X_East,Y_North,Z_Up,Amplitude_X,Amplitude_Y,Amplitude_Z,Batterie,SoundSpeed,Heading,Pitch,Roll,Pressure,TIS,Speed,Direction
, degrees North, degrees East, m.s-1, m.s-1,m.s-1, 1, 1, 1, Volt, m.s-1, degree, degree, degree, dbar, degree_C, m.s-1, degree
2022-05-12T00:04:03,42.805,6.029,0.054,-0.046,-0.019,103.0,102.0,101.0,13.3,1505.2,325.7,-0.7,1.8,2469.989,13.28,0.07,130.4
2022-05-12T00:07:03,42.805,6.029,0.089,-0.039,0.009,102.0,101.0,101.0,13.3,1505.2,329.4,-0.8,1.8,2469.958,13.28,0.097,113.7
2022-05-12T00:10:03,42.805,6.029,0.091,-0.047,-0.018,103.0,101.0,101.0,13.4,1505.2,324.7,-0.7,1.8,2469.956,13.28,0.102,117.3
2022-05-12T00:13:03,42.805,6.029,0.064,-0.035,-0.026,103.0,102.0,100.0,13.4,1505.2,326.9,-0.7,1.8,2469.982,13.28,0.072,118.7
2022-05-12T00:16:03,42.805,6.029,0.058,-0.013,-0.005,102.0,102.0,102.0,13.4,1505.2,330.9,-0.7,1.8,2469.944,13.28,0.059,102.6
2022-05-12T00:19:03,42.805,6.029,0.091,-0.041,0.004,104.0,102.0,101.0,13.4,1505.2,328.2,-0.7,1.8,2469.997,13.28,0.099,114.3
2022-05-12T00:22:03,42.805,6.029,0.082,-0.024,-0.006,102.0,102.0,101.0,13.4,1505.2,326.6,-0.8,1.8,2469.961,13.28,0.085,106.3
2022-05-12T00:25:03,42.805,6.029,0.095,-0.027,0.024,102.0,102.0,99.0,13.4,1505.2,324.0,-0.8,1.8,2469.988,13.28,0.098,105.9
2022-05-12T00:28:03,42.805,6.029,0.096,-0.018,-0.004,105.0,103.0,101.0,13.4,1505.2,321.2,-0.8,1.8,2469.99,13.28,0.097,100.6
2022-05-12T00:31:03,42.805,6.029,0.082,-0.028,-0.003,101.0,103.0,102.0,13.4,1505.2,332.4,-0.8,1.9,2469.958,13.28,0.086,108.9
2022-05-12T00:34:03,42.805,6.029,0.054,-0.023,-0.009,102.0,102.0,101.0,13.4,1505.2,328.1,-0.7,1.8,2469.965,13.28,0.058,113.1
2022-05-12T00:37:03,42.805,6.029,0.082,-0.03,0.008,103.0,103.0,100.0,13.4,1505.2,328.1,-0.7,1.8,2469.96,13.28,0.087,110.1
2022-05-12T00:40:03,42.805,6.029,0.089,-0.025,0.026,101.0,102.0,103.0,13.4,1505.2,332.2,-0.7,1.8,2469.945,13.28,0.092,105.7
2022-05-12T00:43:03,42.805,6.029,0.063,-0.031,-0.007,102.0,103.0,102.0,13.4,1505.2,326.9,-0.7,1.8,2469.973,13.28,0.07,116.2
2022-05-12T00:46:03,42.805,6.029,0.043,-0.051,0.019,103.0,102.0,101.0,13.3,1505.2,331.8,-0.8,1.9,2469.96,13.28,0.066,139.9
2022-05-12T00:49:03,42.805,6.029,0.065,-0.03,-0.015,103.0,104.0,100.0,13.4,1505.2,324.6,-0.7,1.9,2469.979,13.28,0.071,114.8
2022-05-12T00:52:03,42.805,6.029,0.08,-0.038,-0.024,102.0,102.0,100.0,13.4,1505.2,322.6,-0.8,1.8,2469.963,13.28,0.088,115.4
2022-05-12T00:55:03,42.805,6.029,0.073,-0.043,0.027,102.0,102.0,100.0,13.4,1505.2,331.2,-0.7,1.8,2469.972,13.28,0.084,120.5
2022-05-12T00:58:03,42.805,6.029,0.083,-0.023,0.007,102.0,103.0,101.0,13.4,1505.2,325.5,-0.8,1.8,2469.996,13.28,0.086,105.5
2022-05-12T01:04:03,42.805,6.029,0.042,-0.043,0.02,104.0,105.0,103.0,13.4,1505.2,330.3,-0.7,1.8,2470.011,13.28,0.06,135.7
2022-05-12T01:07:03,42.805,6.029,0.061,-0.027,-0.025,103.0,105.0,102.0,13.3,1505.2,322.7,-0.8,1.8,2470.004,13.28,0.066,113.9
2022-05-12T01:10:03,42.805,6.029,0.064,-0.04,-0.002,103.0,102.0,101.0,13.4,1505.2,330.5,-0.8,1.8,2470.016,13.28,0.075,122.0
2022-05-12T01:13:03,42.805,6.029,0.096,-0.056,0.004,103.0,103.0,101.0,13.4,1505.2,324.8,-0.8,1.8,2469.965,13.28,0.111,120.3
2022-05-12T01:16:03,42.805,6.029,0.064,-0.04,-0.001,102.0,101.0,100.0,13.4,1505.2,327.0,-0.8,1.8,2469.95,13.28,0.075,122.0
2022-05-12T01:19:03,42.805,6.029,0.068,-0.042,0.025,101.0,103.0,102.0,13.4,1505.2,330.3,-0.8,1.9,2470.0,13.28,0.079,121.7
2022-05-12T01:22:03,42.805,6.029,0.062,-0.053,-0.026,103.0,101.0,101.0,13.4,1505.2,332.6,-0.8,1.8,2469.976,13.28,0.081,130.5
2022-05-12T01:25:03,42.805,6.029,0.049,-0.031,0.017,102.0,103.0,101.0,13.3,1505.2,322.3,-0.8,1.8,2469.999,13.28,0.057,122.3
2022-05-12T01:28:03,42.805,6.029,0.072,-0.04,0.058,103.0,102.0,100.0,13.3,1505.2,327.3,-0.7,1.8,2469.98,13.28,0.082,119.1
2022-05-12T01:31:03,42.805,6.029,0.056,-0.04,0.011,102.0,104.0,100.0,13.3,1505.2,329.2,-0.7,1.8,2469.999,13.28,0.068,125.5
2022-05-12T01:34:03,42.805,6.029,0.079,-0.022,-0.004,105.0,103.0,101.0,13.4,1505.2,325.9,-0.8,1.8,2470.022,13.28,0.082,105.6
2022-05-12T01:37:03,42.805,6.029,0.047,-0.046,0.022,104.0,101.0,101.0,13.4,1505.2,328.5,-0.7,1.8,2469.997,13.28,0.065,134.4
2022-05-12T01:40:03,42.805,6.029,0.059,-0.016,-0.002,103.0,102.0,101.0,13.3,1505.2,320.8,-0.8,1.8,2470.043,13.28,0.061,105.2
2022-05-12T01:43:03,42.805,6.029,0.058,-0.05,-0.003,103.0,103.0,101.0,13.4,1505.2,329.5,-0.7,1.8,2470.042,13.28,0.076,130.8
2022-05-12T01:46:03,42.805,6.029,0.065,-0.023,-0.005,104.0,101.0,102.0,13.4,1505.2,327.6,-0.8,1.8,2470.049,13.28,0.068,109.5
2022-05-12T01:49:03,42.805,6.029,0.035,-0.035,-0.028,103.0,102.0,100.0,13.3,1505.2,331.2,-0.8,1.8,2470.066,13.28,0.049,135.0
2022-05-12T01:52:03,42.805,6.029,0.076,-0.012,0.036,103.0,102.0,101.0,13.3,1505.2,322.0,-0.7,1.8,2470.046,13.28,0.076,99.0
2022-05-12T01:55:03,42.805,6.029,0.061,-0.04,-0.002,103.0,104.0,101.0,13.4,1505.2,324.4,-0.8,1.8,2470.103,13.28,0.072,123.3
2022-05-12T01:58:03,42.805,6.029,0.057,-0.039,-0.028,103.0,103.0,101.0,13.4,1505.2,328.0,-0.7,1.8,2470.101,13.28,0.069,124.4
2022-05-12T02:04:03,42.805,6.029,0.073,-0.026,-0.024,104.0,102.0,101.0,13.4,1505.2,328.7,-0.7,1.8,2470.105,13.28,0.077,109.6
2022-05-12T02:07:03,42.805,6.029,0.056,-0.033,0.0,106.0,102.0,101.0,13.4,1505.2,328.7,-0.8,1.8,2470.093,13.28,0.064,120.5
2022-05-12T02:10:03,42.805,6.029,0.084,-0.022,0.035,103.0,104.0,100.0,13.4,1505.2,323.1,-0.8,1.8,2470.159,13.28,0.086,104.7
2022-05-12T02:13:03,42.805,6.029,0.051,-0.029,0.013,102.0,103.0,101.0,13.3,1505.2,327.0,-0.7,1.8,2470.123,13.28,0.058,119.6
2022-05-12T02:16:03,42.805,6.029,0.045,-0.024,-0.003,102.0,104.0,102.0,13.4,1505.2,326.3,-0.8,1.8,2470.149,13.28,0.051,118.1
2022-05-12T02:19:03,42.805,6.029,0.053,-0.035,-0.003,103.0,103.0,101.0,13.4,1505.2,333.0,-0.7,1.8,2470.125,13.28,0.063,123.4
2022-05-12T02:22:03,42.805,6.029,0.048,-0.019,-0.006,103.0,102.0,102.0,13.4,1505.2,321.5,-0.8,1.8,2470.146,13.28,0.051,111.6
2022-05-12T02:25:03,42.805,6.029,0.07,-0.022,-0.018,101.0,105.0,102.0,13.4,1505.2,321.3,-0.8,1.8,2470.179,13.28,0.073,107.4
2022-05-12T02:28:03,42.805,6.029,0.081,-0.018,0.037,103.0,102.0,102.0,13.3,1505.2,321.9,-0.8,1.8,2470.153,13.28,0.082,102.5
2022-05-12T02:31:03,42.805,6.029,0.07,-0.028,-0.025,102.0,104.0,101.0,13.3,1505.2,324.8,-0.8,1.8,2470.197,13.28,0.075,111.8
2022-05-12T02:34:03,42.805,6.029,0.057,-0.035,-0.022,103.0,103.0,102.0,13.4,1505.2,326.1,-0.8,1.8,2470.178,13.28,0.066,121.6
2022-05-12T02:37:03,42.805,6.029,0.057,-0.038,0.005,103.0,103.0,101.0,13.4,1505.2,324.8,-0.8,1.8,2470.175,13.28,0.068,123.7
2022-05-12T02:40:03,42.805,6.029,0.07,-0.017,0.004,103.0,104.0,101.0,13.4,1505.2,324.8,-0.7,1.8,2470.245,13.28,0.072,103.7
2022-05-12T02:43:03,42.805,6.029,0.077,-0.03,0.027,103.0,104.0,100.0,13.4,1505.2,324.1,-0.7,1.8,2470.199,13.28,0.082,111.3
2022-05-12T02:46:03,42.805,6.029,0.066,-0.045,0.008,102.0,103.0,102.0,13.4,1505.2,331.1,-0.7,1.8,2470.203,13.28,0.079,124.3
2022-05-12T02:49:03,42.805,6.029,0.073,-0.037,0.024,103.0,101.0,101.0,13.3,1505.2,321.7,-0.8,1.8,2470.276,13.28,0.081,116.9
2022-05-12T02:52:03,42.805,6.029,0.053,-0.032,0.012,102.0,103.0,101.0,13.4,1505.2,321.0,-0.7,1.8,2470.276,13.28,0.061,121.1
2022-05-12T02:55:03,42.805,6.029,0.064,-0.025,0.0,103.0,103.0,102.0,13.3,1505.2,325.2,-0.7,1.8,2470.26,13.28,0.068,111.3
2022-05-12T02:58:03,42.805,6.029,0.077,-0.045,0.039,104.0,103.0,101.0,13.3,1505.2,325.6,-0.7,1.8,2470.283,13.28,0.089,120.3
2022-05-12T03:04:03,42.805,6.029,0.039,-0.038,-0.002,103.0,104.0,101.0,13.4,1505.2,328.5,-0.7,1.8,2470.366,13.28,0.054,134.3
2022-05-12T03:07:03,42.805,6.029,0.055,-0.013,-0.009,103.0,105.0,102.0,13.3,1505.2,328.8,-0.8,1.8,2470.351,13.28,0.056,103.3
2022-05-12T03:10:03,42.805,6.029,0.069,-0.03,0.003,104.0,103.0,101.0,13.4,1505.2,330.9,-0.7,1.8,2470.373,13.28,0.075,113.5
2022-05-12T03:13:03,42.805,6.029,0.066,-0.035,-0.004,103.0,103.0,102.0,13.3,1505.2,325.1,-0.8,1.8,2470.395,13.28,0.074,117.9
2022-05-12T03:16:03,42.805,6.029,0.033,-0.032,0.013,103.0,103.0,101.0,13.4,1505.2,329.3,-0.7,1.9,2470.349,13.28,0.045,134.1
2022-05-12T03:19:03,42.805,6.029,0.06,-0.036,0.016,103.0,103.0,101.0,13.4,1505.2,331.7,-0.8,1.9,2470.368,13.28,0.069,121.0
2022-05-12T03:22:03,42.805,6.029,0.038,-0.037,-0.001,104.0,102.0,102.0,13.4,1505.2,326.4,-0.8,1.9,2470.373,13.28,0.053,134.2
2022-05-12T03:25:03,42.805,6.029,0.047,-0.025,0.025,103.0,103.0,100.0,13.4,1505.2,321.2,-0.8,1.8,2470.398,13.28,0.053,118.0
2022-05-12T03:28:03,42.805,6.029,0.063,-0.034,0.007,104.0,102.0,101.0,13.4,1505.2,321.6,-0.7,1.8,2470.397,13.28,0.071,118.4
2022-05-12T03:31:03,42.805,6.029,0.082,-0.049,0.013,104.0,102.0,101.0,13.4,1505.2,331.0,-0.8,1.8,2470.377,13.28,0.095,120.9
2022-05-12T03:34:03,42.805,6.029,0.045,-0.031,-0.006,102.0,102.0,102.0,13.3,1505.2,329.7,-0.7,1.8,2470.433,13.28,0.054,124.6
2022-05-12T03:37:03,42.805,6.029,0.07,-0.033,-0.008,103.0,104.0,102.0,13.4,1505.2,329.7,-0.7,1.9,2470.405,13.28,0.077,115.2
2022-05-12T03:40:03,42.805,6.029,0.059,-0.032,0.014,102.0,103.0,102.0,13.4,1505.2,325.6,-0.8,1.8,2470.425,13.28,0.067,118.5
2022-05-12T03:43:03,42.805,6.029,0.074,-0.015,0.043,104.0,103.0,101.0,13.3,1505.2,328.9,-0.7,1.8,2470.478,13.28,0.075,101.5
2022-05-12T03:46:03,42.805,6.029,0.078,-0.048,-0.045,103.0,104.0,100.0,13.4,1505.2,327.2,-0.7,1.8,2470.423,13.28,0.091,121.6
2022-05-12T03:49:03,42.805,6.029,0.059,-0.016,0.021,104.0,103.0,101.0,13.3,1505.2,327.8,-0.7,1.8,2470.426,13.28,0.061,105.2
2022-05-12T03:52:03,42.805,6.029,0.072,-0.049,-0.022,103.0,102.0,101.0,13.4,1505.2,322.7,-0.7,1.8,2470.45,13.28,0.087,124.2
2022-05-12T03:55:03,42.805,6.029,0.056,-0.064,-0.011,104.0,102.0,101.0,13.4,1505.2,325.8,-0.7,1.8,2470.406,13.28,0.085,138.8
2022-05-12T03:58:03,42.805,6.029,0.035,-0.032,-0.003,103.0,103.0,101.0,13.4,1505.2,322.3,-0.8,1.8,2470.433,13.28,0.047,132.4
2022-05-12T04:04:03,42.805,6.029,0.051,-0.048,-0.015,102.0,103.0,102.0,13.3,1505.2,330.6,-0.7,1.9,2470.504,13.28,0.07,133.3
2022-05-12T04:07:03,42.805,6.029,0.07,-0.024,0.043,103.0,103.0,101.0,13.3,1505.2,322.3,-0.8,1.8,2470.482,13.28,0.073,108.9
2022-05-12T04:10:03,42.805,6.029,0.057,-0.031,0.01,102.0,105.0,102.0,13.4,1505.2,324.4,-0.8,1.8,2470.476,13.28,0.064,118.5
2022-05-12T04:13:03,42.805,6.029,0.076,-0.017,0.01,104.0,104.0,101.0,13.4,1505.2,324.4,-0.8,1.8,2470.488,13.28,0.077,102.6
2022-05-12T04:16:03,42.805,6.029,0.059,-0.041,0.019,103.0,104.0,101.0,13.3,1505.2,328.6,-0.8,1.8,2470.479,13.28,0.071,124.8
2022-05-12T04:19:03,42.805,6.029,0.046,-0.025,0.029,103.0,102.0,101.0,13.4,1505.2,327.9,-0.8,1.9,2470.484,13.28,0.052,118.5
2022-05-12T04:22:03,42.805,6.029,0.052,-0.038,0.02,103.0,102.0,101.0,13.3,1505.2,325.1,-0.8,1.8,2470.457,13.28,0.064,126.2
2022-05-12T04:25:03,42.805,6.029,0.069,-0.035,0.023,103.0,103.0,101.0,13.3,1505.2,328.4,-0.8,1.8,2470.414,13.28,0.077,116.9
2022-05-12T04:28:03,42.805,6.029,0.06,-0.021,0.002,103.0,102.0,101.0,13.4,1505.2,328.4,-0.7,1.8,2470.448,13.28,0.063,109.3
2022-05-12T04:31:03,42.805,6.029,0.043,-0.036,0.0,103.0,102.0,101.0,13.4,1505.2,322.5,-0.8,1.8,2470.51,13.28,0.056,129.9
2022-05-12T04:34:03,42.805,6.029,0.05,-0.04,-0.014,103.0,102.0,102.0,13.3,1505.2,328.2,-0.7,1.8,2470.521,13.28,0.064,128.7
2022-05-12T04:37:03,42.805,6.029,0.067,-0.028,0.008,103.0,103.0,102.0,13.3,1505.2,330.5,-0.8,1.8,2470.503,13.28,0.072,112.7
2022-05-12T04:40:03,42.805,6.029,0.063,-0.039,0.014,102.0,104.0,102.0,13.4,1505.2,323.6,-0.8,1.8,2470.482,13.28,0.074,121.8
2022-05-12T04:43:03,42.805,6.029,0.023,-0.012,0.003,103.0,103.0,101.0,13.3,1505.2,324.4,-0.8,1.8,2470.498,13.28,0.025,117.6
2022-05-12T04:46:03,42.805,6.029,0.04,-0.046,-0.011,102.0,103.0,101.0,13.3,1505.2,327.0,-0.7,1.8,2470.49,13.28,0.06,139.0
2022-05-12T04:49:03,42.805,6.029,0.085,-0.011,0.0,104.0,103.0,101.0,13.4,1505.2,321.0,-0.8,1.8,2470.491,13.28,0.085,97.4
2022-05-12T04:52:03,42.805,6.029,0.082,-0.029,0.023,104.0,102.0,101.0,13.3,1505.2,328.8,-0.8,1.8,2470.503,13.28,0.086,109.5
2022-05-12T04:55:03,42.805,6.029,0.025,-0.02,0.014,102.0,103.0,101.0,13.4,1505.2,329.7,-0.8,1.8,2470.518,13.28,0.032,128.7
2022-05-12T04:58:03,42.805,6.029,0.072,-0.025,0.02,102.0,105.0,100.0,13.4,1505.2,330.5,-0.7,1.8,2470.512,13.28,0.076,109.1
2022-05-12T05:04:03,42.805,6.029,0.064,-0.033,0.027,104.0,103.0,101.0,13.3,1505.2,324.2,-0.7,1.8,2470.523,13.28,0.072,117.3
2022-05-12T05:07:03,42.805,6.029,0.067,-0.034,0.017,101.0,104.0,102.0,13.4,1505.2,327.0,-0.7,1.8,2470.47,13.28,0.075,116.9
2022-05-12T05:10:03,42.805,6.029,0.059,-0.029,0.0,102.0,102.0,101.0,13.4,1505.2,324.5,-0.8,1.8,2470.469,13.28,0.065,116.2
2022-05-12T05:13:03,42.805,6.029,0.071,-0.031,0.052,103.0,102.0,102.0,13.3,1505.2,326.4,-0.8,1.8,2470.495,13.28,0.077,113.6
2022-05-12T05:16:03,42.805,6.029,0.051,-0.036,-0.007,104.0,102.0,101.0,13.4,1505.2,326.1,-0.7,1.8,2470.494,13.28,0.062,125.2
2022-05-12T05:19:03,42.805,6.029,0.042,-0.037,-0.023,104.0,104.0,102.0,13.4,1505.2,326.1,-0.7,1.8,2470.526,13.28,0.055,131.4
2022-05-12T05:22:03,42.805,6.029,0.044,-0.013,0.029,104.0,102.0,101.0,13.3,1505.2,321.7,-0.8,1.8,2470.477,13.28,0.045,106.5
2022-05-12T05:25:03,42.805,6.029,0.072,-0.025,0.008,103.0,102.0,101.0,13.4,1505.2,328.5,-0.7,1.8,2470.499,13.28,0.076,109.1
2022-05-12T05:28:03,42.805,6.029,0.049,-0.055,0.005,103.0,102.0,101.0,13.3,1505.2,328.7,-0.7,1.8,2470.515,13.28,0.073,138.3
2022-05-12T05:31:03,42.805,6.029,0.05,-0.02,-0.029,102.0,103.0,101.0,13.4,1505.2,323.5,-0.7,1.8,2470.481,13.28,0.053,111.8
2022-05-12T05:34:03,42.805,6.029,0.066,-0.024,0.016,104.0,103.0,102.0,13.3,1505.2,329.1,-0.7,1.8,2470.515,13.28,0.07,110.0
2022-05-12T05:37:03,42.805,6.029,0.067,-0.034,0.008,103.0,103.0,101.0,13.4,1505.2,327.3,-0.8,1.8,2470.516,13.28,0.075,116.9
2022-05-12T05:40:03,42.805,6.029,0.038,-0.022,0.03,104.0,104.0,102.0,13.4,1505.2,325.5,-0.8,1.8,2470.509,13.28,0.043,120.1
2022-05-12T05:43:03,42.805,6.029,0.066,-0.032,-0.011,104.0,103.0,101.0,13.4,1505.2,322.6,-0.7,1.8,2470.488,13.28,0.073,115.9
2022-05-12T05:46:03,42.805,6.029,0.049,-0.011,0.013,103.0,105.0,101.0,13.4,1505.2,326.5,-0.8,1.8,2470.507,13.28,0.05,102.7
2022-05-12T05:49:03,42.805,6.029,0.063,-0.039,0.003,103.0,103.0,102.0,13.4,1505.2,326.4,-0.7,1.9,2470.472,13.28,0.074,121.8
2022-05-12T05:52:03,42.805,6.029,0.072,-0.023,-0.012,103.0,102.0,102.0,13.4,1505.2,322.0,-0.7,1.8,2470.52,13.28,0.075,107.7
2022-05-12T05:55:03,42.805,6.029,0.075,-0.05,0.011,103.0,103.0,102.0,13.4,1505.2,327.1,-0.7,1.8,2470.515,13.28,0.09,123.7
2022-05-12T05:58:03,42.805,6.029,0.059,-0.029,0.004,104.0,102.0,102.0,13.4,1505.2,330.1,-0.7,1.8,2470.507,13.28,0.065,116.2
2022-05-12T06:04:03,42.805,6.029,0.09,-0.039,-0.005,103.0,103.0,102.0,13.3,1505.2,324.3,-0.8,1.8,2470.569,13.28,0.098,113.4
2022-05-12T06:07:03,42.805,6.029,0.075,-0.025,-0.011,103.0,103.0,102.0,13.4,1505.2,327.1,-0.8,1.8,2470.559,13.28,0.079,108.4
2022-05-12T06:10:03,42.805,6.029,0.058,-0.021,0.013,104.0,103.0,102.0,13.4,1505.2,325.3,-0.8,1.8,2470.555,13.28,0.061,109.9
2022-05-12T06:13:03,42.805,6.029,0.067,-0.031,0.029,103.0,103.0,101.0,13.4,1505.2,325.0,-0.7,1.8,2470.524,13.28,0.073,114.8
2022-05-12T06:16:03,42.805,6.029,0.063,-0.02,-0.003,103.0,103.0,102.0,13.4,1505.2,330.5,-0.8,1.8,2470.511,13.28,0.066,107.6
2022-05-12T06:19:03,42.805,6.029,0.049,-0.028,-0.018,103.0,103.0,101.0,13.4,1505.2,327.0,-0.8,1.8,2470.547,13.28,0.056,119.7
2022-05-12T06:22:03,42.805,6.029,0.05,-0.029,0.005,106.0,104.0,102.0,13.4,1505.2,324.4,-0.7,1.9,2470.534,13.28,0.057,120.1
2022-05-12T06:25:03,42.805,6.029,0.075,-0.04,0.033,103.0,103.0,101.0,13.3,1505.2,328.8,-0.8,1.8,2470.532,13.28,0.084,118.1
2022-05-12T06:28:03,42.805,6.029,0.053,-0.037,0.007,104.0,104.0,102.0,13.4,1505.2,325.6,-0.8,1.8,2470.53,13.28,0.064,124.9
2022-05-12T06:31:03,42.805,6.029,0.057,-0.013,0.023,103.0,104.0,102.0,13.4,1505.2,323.2,-0.7,1.8,2470.555,13.28,0.058,102.8
2022-05-12T06:34:03,42.805,6.029,0.064,-0.053,-0.016,103.0,104.0,102.0,13.3,1505.2,331.2,-0.8,1.8,2470.55,13.28,0.083,129.6
2022-05-12T06:37:03,42.805,6.029,0.076,-0.016,0.031,104.0,103.0,101.0,13.4,1505.2,325.1,-0.8,1.8,2470.566,13.28,0.077,101.9
2022-05-12T06:40:03,42.805,6.029,0.062,-0.024,0.021,103.0,103.0,101.0,13.4,1505.2,324.7,-0.7,1.8,2470.564,13.28,0.066,111.2
2022-05-12T06:43:03,42.805,6.029,0.085,-0.028,0.001,103.0,103.0,102.0,13.3,1505.2,329.1,-0.8,1.8,2470.559,13.28,0.089,108.2
2022-05-12T06:46:03,42.805,6.029,0.078,-0.041,0.009,104.0,105.0,102.0,13.4,1505.2,330.3,-0.8,1.8,2470.546,13.28,0.088,117.7
2022-05-12T06:49:03,42.805,6.029,0.046,-0.033,-0.013,105.0,105.0,101.0,13.3,1505.2,326.7,-0.8,1.9,2470.521,13.28,0.056,125.7
2022-05-12T06:52:03,42.805,6.029,0.049,-0.009,0.014,104.0,102.0,103.0,13.3,1505.2,330.0,-0.8,1.9,2470.545,13.28,0.049,100.4
2022-05-12T06:55:03,42.805,6.029,0.046,-0.008,0.016,103.0,104.0,101.0,13.3,1505.2,323.2,-0.7,1.8,2470.556,13.28,0.046,99.9
2022-05-12T06:58:03,42.805,6.029,0.056,-0.047,0.0,103.0,104.0,101.0,13.3,1505.2,327.6,-0.7,1.8,2470.549,13.28,0.073,130.0
2022-05-12T07:04:03,42.805,6.029,0.056,-0.028,0.007,104.0,103.0,101.0,13.3,1505.2,321.9,-0.8,1.8,2470.537,13.28,0.062,116.6
2022-05-12T07:07:03,42.805,6.029,0.049,-0.023,0.023,103.0,104.0,101.0,13.3,1505.2,325.7,-0.8,1.9,2470.56,13.28,0.054,115.1
2022-05-12T07:10:03,42.805,6.029,0.06,-0.026,0.061,104.0,103.0,101.0,13.4,1505.2,330.9,-0.8,1.8,2470.567,13.28,0.065,113.4
2022-05-12T07:13:03,42.805,6.029,0.058,-0.016,0.014,103.0,104.0,102.0,13.4,1505.2,321.4,-0.8,1.8,2470.536,13.28,0.06,105.4
2022-05-12T07:16:03,42.805,6.029,0.074,-0.023,0.013,103.0,104.0,102.0,13.3,1505.2,327.1,-0.8,1.8,2470.54,13.28,0.077,107.3
2022-05-12T07:19:03,42.805,6.029,0.052,-0.015,0.006,103.0,102.0,101.0,13.4,1505.2,325.8,-0.8,1.8,2470.528,13.28,0.054,106.1
2022-05-12T07:22:03,42.805,6.029,0.078,-0.038,-0.015,102.0,103.0,102.0,13.4,1505.2,328.3,-0.8,1.8,2470.492,13.28,0.086,116.0
2022-05-12T07:25:03,42.805,6.029,0.082,-0.016,0.003,102.0,104.0,103.0,13.4,1505.2,328.0,-0.8,1.8,2470.507,13.28,0.083,101.0
2022-05-12T07:28:03,42.805,6.029,0.06,-0.04,-0.02,103.0,102.0,102.0,13.4,1505.2,327.9,-0.8,1.8,2470.524,13.28,0.072,123.7
2022-05-12T07:31:03,42.805,6.029,0.067,-0.038,0.017,103.0,103.0,101.0,13.3,1505.2,330.6,-0.8,1.8,2470.523,13.28,0.077,119.6
2022-05-12T07:34:03,42.805,6.029,0.062,-0.02,0.0,103.0,103.0,101.0,13.3,1505.2,327.1,-0.7,1.8,2470.482,13.28,0.065,107.9
2022-05-12T07:37:03,42.805,6.029,0.063,-0.009,0.001,104.0,102.0,102.0,13.4,1505.2,326.0,-0.7,1.8,2470.524,13.28,0.063,98.1
2022-05-12T07:40:03,42.805,6.029,0.071,-0.023,-0.022,103.0,103.0,101.0,13.3,1505.2,326.8,-0.8,1.8,2470.511,13.28,0.074,107.9
2022-05-12T07:43:03,42.805,6.029,0.046,-0.01,0.022,104.0,104.0,100.0,13.4,1505.2,327.4,-0.7,1.8,2470.44,13.28,0.047,102.3
2022-05-12T07:46:03,42.805,6.029,0.058,-0.02,0.0,102.0,103.0,101.0,13.4,1505.2,329.6,-0.8,1.8,2470.445,13.28,0.061,109.0
2022-05-12T07:49:03,42.805,6.029,0.076,-0.039,0.009,103.0,103.0,102.0,13.4,1505.2,326.0,-0.7,1.8,2470.462,13.28,0.085,117.2
2022-05-12T07:52:03,42.805,6.029,0.09,-0.019,0.0,104.0,103.0,101.0,13.3,1505.2,323.5,-0.7,1.8,2470.478,13.28,0.091,101.9
2022-05-12T07:55:03,42.805,6.029,0.079,-0.018,0.013,104.0,103.0,101.0,13.4,1505.2,328.8,-0.7,1.8,2470.456,13.28,0.081,102.8
2022-05-12T07:58:03,42.805,6.029,0.062,-0.031,0.026,102.0,104.0,101.0,13.3,1505.2,324.3,-0.7,1.8,2470.44,13.28,0.069,116.6
2022-05-12T08:04:03,42.805,6.029,0.07,-0.043,0.018,103.0,104.0,102.0,13.4,1505.2,325.9,-0.8,1.8,2470.514,13.28,0.082,121.6
2022-05-12T08:07:03,42.805,6.029,0.061,-0.017,0.038,102.0,103.0,101.0,13.4,1505.2,324.9,-0.8,1.9,2470.47,13.28,0.063,105.6
2022-05-12T08:10:03,42.805,6.029,0.08,-0.041,-0.012,104.0,105.0,100.0,13.4,1505.2,322.2,-0.8,1.8,2470.449,13.28,0.089,117.1
2022-05-12T08:13:03,42.805,6.029,0.087,-0.017,-0.004,101.0,102.0,102.0,13.4,1505.2,328.1,-0.8,1.8,2470.462,13.28,0.088,101.1
2022-05-12T08:16:03,42.805,6.029,0.08,-0.044,0.022,102.0,103.0,102.0,13.3,1505.2,329.0,-0.7,1.8,2470.459,13.28,0.091,118.8
2022-05-12T08:19:03,42.805,6.029,0.072,-0.012,-0.027,104.0,102.0,102.0,13.4,1505.2,322.9,-0.7,1.8,2470.482,13.28,0.072,99.5
2022-05-12T08:22:03,42.805,6.029,0.083,-0.018,0.011,101.0,102.0,101.0,13.4,1505.2,321.0,-0.7,1.8,2470.436,13.28,0.084,102.2
2022-05-12T08:25:03,42.805,6.029,0.056,-0.025,0.015,102.0,103.0,101.0,13.3,1505.2,331.7,-0.7,1.8,2470.466,13.28,0.061,114.1
2022-05-12T08:28:03,42.805,6.029,0.06,-0.026,0.002,104.0,103.0,101.0,13.4,1505.2,327.7,-0.8,1.8,2470.461,13.28,0.065,113.4
2022-05-12T08:31:03,42.805,6.029,0.082,-0.006,0.036,103.0,103.0,101.0,13.4,1505.2,325.5,-0.7,1.8,2470.424,13.28,0.082,94.2
2022-05-12T08:34:03,42.805,6.029,0.086,-0.031,0.01,103.0,103.0,102.0,13.4,1505.2,328.7,-0.8,1.8,2470.446,13.28,0.091,109.8
2022-05-12T08:37:03,42.805,6.029,0.099,-0.012,-0.015,104.0,101.0,101.0,13.3,1505.2,323.1,-0.8,1.8,2470.44,13.28,0.099,96.9
2022-05-12T08:40:03,42.805,6.029,0.083,-0.028,-0.018,103.0,103.0,101.0,13.4,1505.2,326.8,-0.7,1.8,2470.459,13.28,0.087,108.6
2022-05-12T08:43:03,42.805,6.029,0.065,-0.009,0.023,102.0,103.0,102.0,13.4,1505.2,323.0,-0.7,1.8,2470.475,13.28,0.065,97.9
2022-05-12T08:46:03,42.805,6.029,0.064,-0.03,0.029,104.0,102.0,101.0,13.4,1505.2,329.9,-0.8,1.8,2470.435,13.28,0.07,115.1
2022-05-12T08:49:03,42.805,6.029,0.059,-0.03,-0.015,102.0,103.0,101.0,13.3,1505.2,325.8,-0.8,1.8,2470.439,13.28,0.066,116.9
2022-05-12T08:52:03,42.805,6.029,0.064,-0.046,0.0,102.0,103.0,102.0,13.4,1505.2,329.6,-0.8,1.8,2470.462,13.28,0.078,125.7
2022-05-12T08:55:03,42.805,6.029,0.083,-0.021,0.007,104.0,104.0,101.0,13.4,1505.2,325.5,-0.8,1.8,2470.449,13.28,0.085,104.2
2022-05-12T08:58:03,42.805,6.029,0.111,-0.014,0.007,102.0,102.0,100.0,13.4,1505.2,325.5,-0.8,1.8,2470.467,13.28,0.111,97.2
2022-05-12T09:04:03,42.805,6.029,0.071,-0.037,0.015,102.0,103.0,101.0,13.4,1505.2,331.6,-0.7,1.9,2470.516,13.28,0.08,117.5
2022-05-12T09:07:03,42.805,6.029,0.065,-0.013,0.0,104.0,102.0,102.0,13.4,1505.2,328.8,-0.8,1.9,2470.496,13.28,0.066,101.3
2022-05-12T09:10:03,42.805,6.029,0.052,-0.027,0.004,104.0,102.0,101.0,13.4,1505.2,328.5,-0.8,1.8,2470.458,13.28,0.058,117.4
2022-05-12T09:13:03,42.805,6.029,0.063,-0.022,0.014,103.0,102.0,101.0,13.3,1505.2,328.7,-0.7,1.8,2470.467,13.28,0.066,109.2
2022-05-12T09:16:03,42.805,6.029,0.084,-0.023,0.035,103.0,102.0,101.0,13.4,1505.2,331.6,-0.8,1.8,2470.508,13.28,0.087,105.3
2022-05-12T09:19:03,42.805,6.029,0.077,-0.033,0.001,102.0,104.0,101.0,13.4,1505.2,331.2,-0.8,1.8,2470.491,13.28,0.083,113.2
2022-05-12T09:22:03,42.805,6.029,0.068,-0.024,-0.008,105.0,101.0,100.0,13.4,1505.2,326.3,-0.8,1.8,2470.47,13.28,0.072,109.4
2022-05-12T09:25:03,42.805,6.029,0.076,-0.022,0.0,102.0,104.0,99.0,13.4,1505.2,329.4,-0.7,1.8,2470.496,13.28,0.079,106.1
2022-05-12T09:28:03,42.805,6.029,0.078,-0.027,0.027,103.0,102.0,101.0,13.4,1505.2,322.4,-0.7,1.8,2470.473,13.28,0.082,109.1
2022-05-12T09:31:03,42.805,6.029,0.052,-0.051,-0.025,104.0,102.0,101.0,13.4,1505.2,328.1,-0.8,1.8,2470.487,13.28,0.072,134.4
2022-05-12T09:34:03,42.805,6.029,0.048,-0.014,0.02,103.0,102.0,102.0,13.3,1505.2,321.2,-0.8,1.8,2470.498,13.28,0.05,106.3
2022-05-12T09:37:03,42.805,6.029,0.053,-0.035,-0.007,102.0,103.0,101.0,13.4,1505.2,325.2,-0.7,1.8,2470.474,13.28,0.063,123.4
2022-05-12T09:40:03,42.805,6.029,0.06,-0.029,-0.012,104.0,102.0,101.0,13.3,1505.2,332.8,-0.7,1.8,2470.486,13.28,0.066,115.8
2022-05-12T09:43:03,42.805,6.029,0.064,-0.035,0.0,102.0,104.0,100.0,13.3,1505.2,329.4,-0.8,1.8,2470.476,13.28,0.072,118.7
2022-05-12T09:46:03,42.805,6.029,0.063,-0.016,0.008,103.0,103.0,101.0,13.4,1505.2,325.5,-0.8,1.8,2470.483,13.28,0.064,104.2
2022-05-12T09:49:03,42.805,6.029,0.074,-0.02,-0.027,103.0,102.0,101.0,13.4,1505.2,325.1,-0.7,1.8,2470.543,13.28,0.076,105.1
2022-05-12T09:52:03,42.805,6.029,0.066,-0.027,0.009,102.0,102.0,102.0,13.3,1505.2,323.9,-0.7,1.8,2470.503,13.28,0.071,112.2
2022-05-12T09:55:03,42.805,6.029,0.108,-0.044,0.068,102.0,102.0,101.0,13.3,1505.2,333.8,-0.7,1.8,2470.525,13.28,0.116,112.2
2022-05-12T09:58:03,42.805,6.029,0.093,-0.021,0.016,103.0,102.0,101.0,13.3,1505.2,323.6,-0.7,1.9,2470.477,13.28,0.095,102.7